Time,TemperatureF,DewpointF,PressureIn,WindDirection,WindDirectionDegrees,WindSpeedMPH,WindSpeedGustMPH,Humidity,HourlyPrecipIn,Conditions,Clouds,dailyrainin,SoftwareType,DateUTC
2013-04-28 00:01:00,58.5,44.3,29.70,South,169,0.0,4.0,59,0.00,,,0.00,WUHU216DAVISVP2,2013-04-28 05:01:00,
2013-04-28 00:06:00,58.3,44.1,29.69,South,172,0.0,7.0,59,0.00,,,0.00,WUHU216DAVISVP2,2013-04-28 05:06:00,
2013-04-28 00:11:00,58.1,44.4,29.69,South,169,0.0,7.0,60,0.00,,,0.00,WUHU216DAVISVP2,2013-04-28 05:11:00,
2013-04-28 00:16:00,57.8,44.1,29.69,South,173,0.0,5.0,60,0.00,,,0.00,WUHU216DAVISVP2,2013-04-28 05:16:00,
2013-04-28 00:21:00,57.5,44.3,29.68,SSE,157,0.0,5.0,61,0.00,,,0.00,WUHU216DAVISVP2,2013-04-28 05:21:00,
2013-04-28 00:26:00,57.2,44.0,29.69,SSE,161,0.0,5.0,61,0.00,,,0.00,WUHU216DAVISVP2,2013-04-28 05:26:00,
2013-04-28 00:31:00,57.0,43.8,29.69,SSE,160,0.0,5.0,61,0.00,,,0.00,WUHU216DAVISVP2,2013-04-28 05:31:00,
2013-04-28 00:36:00,56.8,43.6,29.69,SSE,159,0.0,2.0,61,0.00,,,0.00,WUHU216DAVISVP2,2013-04-28 05:36:00,
2013-04-28 00:41:00,56.5,43.8,29.69,SSE,159,0.0,2.0,62,0.00,,,0.00,WUHU216DAVISVP2,2013-04-28 05:41:00,
2013-04-28 00:46:00,56.1,43.4,29.68,SSE,159,0.0,0.0,62,0.00,,,0.00,WUHU216DAVISVP2,2013-04-28 05:46:00,
2013-04-28 00:51:00,55.9,43.6,29.68,SSE,163,0.0,4.0,63,0.00,,,0.00,WUHU216DAVISVP2,2013-04-28 05:51:00,
2013-04-28 00:56:00,55.6,43.7,29.68,SSE,162,0.0,4.0,64,0.00,,,0.00,WUHU216DAVISVP2,2013-04-28 05:56:00,
2013-04-28 01:01:00,55.3,43.5,29.68,SSE,162,0.0,0.0,64,0.00,,,0.00,WUHU216DAVISVP2,2013-04-28 06:01:00,
2013-04-28 01:06:00,55.1,43.7,29.68,SSE,161,0.0,0.0,65,0.00,,,0.00,WUHU216DAVISVP2,2013-04-28 06:06:00,
2013-04-28 01:11:00,54.8,43.4,29.68,SSE,160,0.0,4.0,65,0.00,,,0.00,WUHU216DAVISVP2,2013-04-28 06:11:00,
2013-04-28 01:16:00,54.6,43.6,29.68,SSE,160,0.0,4.0,66,0.00,,,0.00,WUHU216DAVISVP2,2013-04-28 06:16:00,
2013-04-28 01:21:00,54.4,43.4,29.67,SSE,160,0.0,5.0,66,0.00,,,0.00,WUHU216DAVISVP2,2013-04-28 06:21:00,
2013-04-28 01:26:00,54.2,43.2,29.67,SSE,160,0.0,5.0,66,0.00,,,0.00,WUHU216DAVISVP2,2013-04-28 06:26:00,
2013-04-28 01:31:00,53.9,43.3,29.67,SSE,160,0.0,0.0,67,0.00,,,0.00,WUHU216DAVISVP2,2013-04-28 06:31:00,
2013-04-28 01:36:00,53.6,43.0,29.67,SSE,160,0.0,0.0,67,0.00,,,0.00,WUHU216DAVISVP2,2013-04-28 06:36:00,
2013-04-28 01:41:00,53.3,42.7,29.66,SSE,160,0.0,0.0,67,0.00,,,0.00,WUHU216DAVISVP2,2013-04-28 06:41:00,
2013-04-28 01:46:00,52.9,42.7,29.66,SSE,160,0.0,2.0,68,0.00,,,0.00,WUHU216DAVISVP2,2013-04-28 06:46:00,
2013-04-28 01:51:00,52.5,42.4,29.66,SSE,161,0.0,2.0,68,0.00,,,0.00,WUHU216DAVISVP2,2013-04-28 06:51:00,
2013-04-28 01:56:00,52.3,42.2,29.66,SSE,154,0.0,6.0,68,0.00,,,0.00,WUHU216DAVISVP2,2013-04-28 06:56:00,
2013-04-28 02:01:00,52.1,42.0,29.65,SSE,154,1.0,6.0,68,0.00,,,0.00,WUHU216DAVISVP2,2013-04-28 07:01:00,
2013-04-28 02:06:00,51.8,41.7,29.65,SSE,160,0.0,1.0,68,0.00,,,0.00,WUHU216DAVISVP2,2013-04-28 07:06:00,
2013-04-28 02:11:00,51.6,41.9,29.66,SSE,160,0.0,0.0,69,0.00,,,0.00,WUHU216DAVISVP2,2013-04-28 07:11:00,
2013-04-28 02:16:00,51.5,41.8,29.65,SSE,158,3.0,3.0,69,0.00,,,0.00,WUHU216DAVISVP2,2013-04-28 07:16:00,
2013-04-28 02:21:00,51.6,41.5,29.65,SSE,163,0.0,4.0,68,0.00,,,0.00,WUHU216DAVISVP2,2013-04-28 07:21:00,
2013-04-28 02:26:00,51.5,41.4,29.64,SSE,163,0.0,4.0,68,0.00,,,0.00,WUHU216DAVISVP2,2013-04-28 07:26:00,
2013-04-28 02:31:00,51.4,41.3,29.64,SSE,155,0.0,6.0,68,0.00,,,0.00,WUHU216DAVISVP2,2013-04-28 07:31:00,
2013-04-28 02:36:00,51.5,41.4,29.64,South,173,0.0,6.0,68,0.00,,,0.00,WUHU216DAVISVP2,2013-04-28 07:36:00,
2013-04-28 02:41:00,51.5,41.0,29.64,SSE,162,0.0,6.0,67,0.00,,,0.00,WUHU216DAVISVP2,2013-04-28 07:41:00,
2013-04-28 02:46:00,51.5,41.0,29.64,SSE,153,0.0,6.0,67,0.00,,,0.00,WUHU216DAVISVP2,2013-04-28 07:46:00,
2013-04-28 02:51:00,51.4,40.9,29.63,SSE,167,1.0,6.0,67,0.00,,,0.00,WUHU216DAVISVP2,2013-04-28 07:51:00,
2013-04-28 02:56:00,51.4,40.9,29.63,SSW,192,6.0,10.0,67,0.00,,,0.00,WUHU216DAVISVP2,2013-04-28 07:56:00,
2013-04-28 03:01:00,51.3,40.8,29.63,SSE,159,0.0,10.0,67,0.00,,,0.00,WUHU216DAVISVP2,2013-04-28 08:01:00,
2013-04-28 03:06:00,51.2,40.7,29.63,SSE,161,5.0,6.0,67,0.00,,,0.00,WUHU216DAVISVP2,2013-04-28 08:06:00,
2013-04-28 03:11:00,51.0,40.5,29.63,SSE,161,0.0,6.0,67,0.00,,,0.00,WUHU216DAVISVP2,2013-04-28 08:11:00,
2013-04-28 03:16:00,50.7,40.6,29.62,SSE,163,0.0,5.0,68,0.00,,,0.00,WUHU216DAVISVP2,2013-04-28 08:16:00,
2013-04-28 03:21:00,50.5,40.4,29.62,South,176,3.0,4.0,68,0.00,,,0.00,WUHU216DAVISVP2,2013-04-28 08:21:00,
2013-04-28 03:26:00,50.2,40.5,29.62,SSE,164,0.0,6.0,69,0.00,,,0.00,WUHU216DAVISVP2,2013-04-28 08:26:00,
2013-04-28 03:31:00,50.0,40.3,29.62,South,173,0.0,6.0,69,0.00,,,0.00,WUHU216DAVISVP2,2013-04-28 08:31:00,
2013-04-28 03:36:00,49.9,40.2,29.62,SSE,161,0.0,5.0,69,0.00,,,0.00,WUHU216DAVISVP2,2013-04-28 08:36:00,
2013-04-28 03:41:00,49.8,40.1,29.62,South,172,0.0,6.0,69,0.00,,,0.00,WUHU216DAVISVP2,2013-04-28 08:41:00,
2013-04-28 03:46:00,49.7,40.0,29.61,South,173,2.0,6.0,69,0.00,,,0.00,WUHU216DAVISVP2,2013-04-28 08:46:00,
2013-04-28 03:51:00,49.6,40.0,29.61,South,169,0.0,7.0,69,0.00,,,0.00,WUHU216DAVISVP2,2013-04-28 08:51:00,
2013-04-28 03:56:00,49.5,40.2,29.61,SSE,165,4.0,7.0,70,0.00,,,0.00,WUHU216DAVISVP2,2013-04-28 08:56:00,
2013-04-28 04:01:00,49.5,40.2,29.61,SSE,167,0.0,7.0,70,0.00,,,0.00,WUHU216DAVISVP2,2013-04-28 09:01:00,
2013-04-28 04:06:00,49.4,40.1,29.61,South,173,0.0,7.0,70,0.00,,,0.00,WUHU216DAVISVP2,2013-04-28 09:06:00,
2013-04-28 04:11:00,49.4,40.1,29.61,SSE,161,0.0,7.0,70,0.00,,,0.00,WUHU216DAVISVP2,2013-04-28 09:11:00,
2013-04-28 04:16:00,49.2,39.9,29.62,SSE,163,2.0,7.0,70,0.00,,,0.00,WUHU216DAVISVP2,2013-04-28 09:16:00,
2013-04-28 04:21:00,49.1,40.2,29.61,SSE,163,0.0,4.0,71,0.00,,,0.00,WUHU216DAVISVP2,2013-04-28 09:21:00,
2013-04-28 04:26:00,49.0,40.1,29.61,SSE,163,0.0,4.0,71,0.00,,,0.00,WUHU216DAVISVP2,2013-04-28 09:26:00,
2013-04-28 04:31:00,49.0,40.1,29.61,SSE,156,3.0,6.0,71,0.00,,,0.00,WUHU216DAVISVP2,2013-04-28 09:31:00,
2013-04-28 04:36:00,49.0,40.1,29.61,SSE,157,0.0,6.0,71,0.00,,,0.00,WUHU216DAVISVP2,2013-04-28 09:36:00,
2013-04-28 04:41:00,48.9,40.0,29.61,SSE,157,0.0,5.0,71,0.00,,,0.00,WUHU216DAVISVP2,2013-04-28 09:41:00,
2013-04-28 04:46:00,48.9,40.0,29.61,SSE,159,0.0,5.0,71,0.00,,,0.00,WUHU216DAVISVP2,2013-04-28 09:46:00,
2013-04-28 04:51:00,49.0,40.1,29.61,South,182,0.0,7.0,71,0.00,,,0.00,WUHU216DAVISVP2,2013-04-28 09:51:00,
2013-04-28 04:56:00,49.1,40.2,29.61,SSE,157,0.0,7.0,71,0.00,,,0.00,WUHU216DAVISVP2,2013-04-28 09:56:00,
2013-04-28 05:01:00,49.1,40.2,29.60,SSE,157,0.0,4.0,71,0.00,,,0.00,WUHU216DAVISVP2,2013-04-28 10:01:00,
2013-04-28 05:06:00,49.0,40.1,29.61,SSE,157,0.0,4.0,71,0.00,,,0.00,WUHU216DAVISVP2,2013-04-28 10:06:00,
2013-04-28 05:11:00,49.1,40.2,29.61,SSE,159,1.0,3.0,71,0.00,,,0.00,WUHU216DAVISVP2,2013-04-28 10:11:00,
2013-04-28 05:16:00,49.2,40.6,29.61,SSE,162,0.0,3.0,72,0.00,,,0.00,WUHU216DAVISVP2,2013-04-28 10:16:00,
2013-04-28 05:21:00,49.2,40.3,29.61,SSE,163,4.0,6.0,71,0.00,,,0.00,WUHU216DAVISVP2,2013-04-28 10:21:00,
2013-04-28 05:26:00,49.4,40.5,29.61,SSE,160,4.0,11.0,71,0.00,,,0.00,WUHU216DAVISVP2,2013-04-28 10:26:00,
2013-04-28 05:31:00,49.6,40.7,29.61,SE,146,1.0,11.0,71,0.00,,,0.00,WUHU216DAVISVP2,2013-04-28 10:31:00,
2013-04-28 05:36:00,49.5,40.6,29.61,SSE,152,2.0,8.0,71,0.00,,,0.00,WUHU216DAVISVP2,2013-04-28 10:36:00,
2013-04-28 05:41:00,49.5,40.6,29.60,South,175,3.0,7.0,71,0.00,,,0.00,WUHU216DAVISVP2,2013-04-28 10:41:00,
2013-04-28 05:46:00,49.4,40.8,29.60,SSE,156,5.0,9.0,72,0.00,,,0.00,WUHU216DAVISVP2,2013-04-28 10:46:00,
2013-04-28 05:51:00,49.4,40.8,29.60,SSE,164,0.0,9.0,72,0.00,,,0.00,WUHU216DAVISVP2,2013-04-28 10:51:00,
2013-04-28 05:56:00,49.3,40.4,29.60,SSE,162,0.0,7.0,71,0.00,,,0.00,WUHU216DAVISVP2,2013-04-28 10:56:00,
2013-04-28 06:01:00,49.2,40.6,29.61,SSE,161,2.0,6.0,72,0.00,,,0.00,WUHU216DAVISVP2,2013-04-28 11:01:00,
2013-04-28 06:06:00,49.2,40.6,29.60,SSE,160,3.0,6.0,72,0.00,,,0.00,WUHU216DAVISVP2,2013-04-28 11:06:00,
2013-04-28 06:11:00,49.1,40.6,29.60,SSE,168,1.0,6.0,72,0.00,,,0.00,WUHU216DAVISVP2,2013-04-28 11:11:00,
2013-04-28 06:16:00,49.1,40.6,29.60,SSE,158,2.0,6.0,72,0.00,,,0.00,WUHU216DAVISVP2,2013-04-28 11:16:00,
2013-04-28 06:21:00,49.0,40.8,29.60,SSE,156,4.0,9.0,73,0.00,,,0.00,WUHU216DAVISVP2,2013-04-28 11:21:00,
2013-04-28 06:26:00,49.0,40.8,29.60,SSE,153,0.0,9.0,73,0.00,,,0.00,WUHU216DAVISVP2,2013-04-28 11:26:00,
2013-04-28 06:31:00,49.0,40.8,29.60,SSE,165,0.0,9.0,73,0.00,,,0.00,WUHU216DAVISVP2,2013-04-28 11:31:00,
2013-04-28 06:36:00,49.0,40.8,29.60,SSE,167,1.0,7.0,73,0.00,,,0.00,WUHU216DAVISVP2,2013-04-28 11:36:00,
2013-04-28 06:41:00,49.1,40.9,29.61,South,169,0.0,6.0,73,0.00,,,0.00,WUHU216DAVISVP2,2013-04-28 11:41:00,
2013-04-28 06:46:00,49.1,40.9,29.61,South,172,3.0,6.0,73,0.00,,,0.00,WUHU216DAVISVP2,2013-04-28 11:46:00,
2013-04-28 06:51:00,49.1,40.9,29.60,South,180,2.0,7.0,73,0.00,,,0.00,WUHU216DAVISVP2,2013-04-28 11:51:00,
2013-04-28 06:56:00,49.0,40.8,29.60,SSE,164,4.0,7.0,73,0.00,,,0.00,WUHU216DAVISVP2,2013-04-28 11:56:00,
2013-04-28 07:01:00,49.0,40.8,29.61,South,176,3.0,7.0,73,0.00,,,0.00,WUHU216DAVISVP2,2013-04-28 12:01:00,
2013-04-28 07:06:00,49.0,41.2,29.60,South,178,2.0,7.0,74,0.00,,,0.00,WUHU216DAVISVP2,2013-04-28 12:06:00,
2013-04-28 07:11:00,49.0,41.2,29.61,South,183,0.0,9.0,74,0.00,,,0.00,WUHU216DAVISVP2,2013-04-28 12:11:00,
2013-04-28 07:16:00,49.0,41.2,29.60,SSE,153,4.0,9.0,74,0.00,,,0.00,WUHU216DAVISVP2,2013-04-28 12:16:00,
2013-04-28 07:21:00,49.1,41.2,29.60,SSE,160,6.0,7.0,74,0.00,,,0.00,WUHU216DAVISVP2,2013-04-28 12:21:00,
2013-04-28 07:26:00,49.2,41.0,29.61,South,171,0.0,8.0,73,0.00,,,0.00,WUHU216DAVISVP2,2013-04-28 12:26:00,
2013-04-28 07:31:00,49.4,41.2,29.61,South,184,4.0,9.0,73,0.00,,,0.00,WUHU216DAVISVP2,2013-04-28 12:31:00,
2013-04-28 07:36:00,49.6,41.4,29.60,SSE,167,2.0,9.0,73,0.00,,,0.00,WUHU216DAVISVP2,2013-04-28 12:36:00,
2013-04-28 07:41:00,49.8,41.2,29.59,SSE,160,5.0,9.0,72,0.00,,,0.00,WUHU216DAVISVP2,2013-04-28 12:41:00,
2013-04-28 07:46:00,50.0,41.4,29.60,SSE,159,0.0,10.0,72,0.00,,,0.00,WUHU216DAVISVP2,2013-04-28 12:46:00,
2013-04-28 07:51:00,50.2,41.6,29.60,South,180,5.0,10.0,72,0.00,,,0.00,WUHU216DAVISVP2,2013-04-28 12:51:00,
2013-04-28 07:56:00,50.3,41.7,29.60,South,182,4.0,9.0,72,0.00,,,0.00,WUHU216DAVISVP2,2013-04-28 12:56:00,
2013-04-28 08:01:00,50.4,41.8,29.61,South,184,0.0,9.0,72,0.00,,,0.00,WUHU216DAVISVP2,2013-04-28 13:01:00,
2013-04-28 08:06:00,50.4,41.8,29.60,South,175,0.0,9.0,72,0.00,,,0.00,WUHU216DAVISVP2,2013-04-28 13:06:00,
2013-04-28 08:11:00,50.5,41.9,29.61,South,179,0.0,6.0,72,0.00,,,0.00,WUHU216DAVISVP2,2013-04-28 13:11:00,
2013-04-28 08:16:00,50.5,41.9,29.61,South,170,0.0,6.0,72,0.00,,,0.00,WUHU216DAVISVP2,2013-04-28 13:16:00,
2013-04-28 08:21:00,50.5,41.9,29.61,SSE,167,0.0,7.0,72,0.00,,,0.00,WUHU216DAVISVP2,2013-04-28 13:21:00,
2013-04-28 08:26:00,50.6,42.0,29.60,SSW,199,4.0,7.0,72,0.00,,,0.00,WUHU216DAVISVP2,2013-04-28 13:26:00,
2013-04-28 08:31:00,50.6,41.6,29.60,SSE,153,1.0,10.0,71,0.00,,,0.00,WUHU216DAVISVP2,2013-04-28 13:31:00,
2013-04-28 08:36:00,50.6,42.0,29.61,South,171,2.0,13.0,72,0.00,,,0.00,WUHU216DAVISVP2,2013-04-28 13:36:00,
2013-04-28 08:41:00,50.6,42.0,29.61,South,182,4.0,13.0,72,0.00,,,0.00,WUHU216DAVISVP2,2013-04-28 13:41:00,
2013-04-28 08:46:00,50.7,41.7,29.61,South,182,0.0,12.0,71,0.00,,,0.00,WUHU216DAVISVP2,2013-04-28 13:46:00,
2013-04-28 08:51:00,50.8,41.8,29.61,South,179,5.0,12.0,71,0.00,,,0.00,WUHU216DAVISVP2,2013-04-28 13:51:00,
2013-04-28 08:56:00,50.8,41.8,29.61,SSW,196,3.0,11.0,71,0.00,,,0.00,WUHU216DAVISVP2,2013-04-28 13:56:00,
2013-04-28 09:01:00,50.9,42.3,29.61,South,190,3.0,11.0,72,0.00,,,0.00,WUHU216DAVISVP2,2013-04-28 14:01:00,
2013-04-28 09:06:00,51.0,42.4,29.62,West,267,0.0,11.0,72,0.00,,,0.00,WUHU216DAVISVP2,2013-04-28 14:06:00,
2013-04-28 09:11:00,51.2,42.2,29.61,South,176,1.0,11.0,71,0.00,,,0.00,WUHU216DAVISVP2,2013-04-28 14:11:00,
2013-04-28 09:16:00,51.4,42.4,29.60,West,272,0.0,11.0,71,0.00,,,0.00,WUHU216DAVISVP2,2013-04-28 14:16:00,
2013-04-28 09:21:00,52.0,42.6,29.60,SSW,199,0.0,6.0,70,0.00,,,0.00,WUHU216DAVISVP2,2013-04-28 14:21:00,
2013-04-28 09:26:00,52.4,42.6,29.61,SSW,199,11.0,12.0,69,0.00,,,0.00,WUHU216DAVISVP2,2013-04-28 14:26:00,
2013-04-28 09:31:00,52.4,42.6,29.60,South,179,3.0,12.0,69,0.00,,,0.00,WUHU216DAVISVP2,2013-04-28 14:31:00,
2013-04-28 09:36:00,52.4,42.6,29.59,SSE,150,0.0,13.0,69,0.00,,,0.00,WUHU216DAVISVP2,2013-04-28 14:36:00,
2013-04-28 09:41:00,52.5,42.7,29.60,South,175,4.0,13.0,69,0.00,,,0.00,WUHU216DAVISVP2,2013-04-28 14:41:00,
2013-04-28 09:46:00,52.6,42.8,29.59,SSE,154,0.0,6.0,69,0.00,,,0.00,WUHU216DAVISVP2,2013-04-28 14:46:00,
2013-04-28 09:51:00,52.6,42.8,29.59,South,180,0.0,9.0,69,0.00,,,0.00,WUHU216DAVISVP2,2013-04-28 14:51:00,
2013-04-28 09:56:00,52.8,43.0,29.61,SW,236,0.0,9.0,69,0.00,,,0.00,WUHU216DAVISVP2,2013-04-28 14:56:00,
2013-04-28 10:01:00,52.8,43.0,29.61,SSW,202,0.0,6.0,69,0.00,,,0.00,WUHU216DAVISVP2,2013-04-28 15:01:00,
2013-04-28 10:06:00,52.8,43.0,29.61,SSW,194,0.0,10.0,69,0.00,,,0.00,WUHU216DAVISVP2,2013-04-28 15:06:00,
2013-04-28 10:11:00,52.7,42.9,29.61,South,178,0.0,10.0,69,0.00,,,0.00,WUHU216DAVISVP2,2013-04-28 15:11:00,
2013-04-28 10:16:00,52.8,43.4,29.61,South,175,5.0,11.0,70,0.00,,,0.00,WUHU216DAVISVP2,2013-04-28 15:16:00,
2013-04-28 10:21:00,52.9,43.1,29.60,SSE,165,6.0,11.0,69,0.00,,,0.00,WUHU216DAVISVP2,2013-04-28 15:21:00,
2013-04-28 10:26:00,53.1,43.3,29.61,South,188,0.0,9.0,69,0.00,,,0.00,WUHU216DAVISVP2,2013-04-28 15:26:00,
2013-04-28 10:31:00,53.3,43.5,29.60,South,178,12.0,13.0,69,0.00,,,0.00,WUHU216DAVISVP2,2013-04-28 15:31:00,
2013-04-28 10:36:00,53.8,43.6,29.59,South,186,1.0,19.0,68,0.00,,,0.00,WUHU216DAVISVP2,2013-04-28 15:36:00,
2013-04-28 10:41:00,54.4,43.8,29.60,South,182,11.0,19.0,67,0.00,,,0.00,WUHU216DAVISVP2,2013-04-28 15:41:00,
2013-04-28 10:46:00,54.8,44.2,29.59,South,180,4.0,14.0,67,0.00,,,0.00,WUHU216DAVISVP2,2013-04-28 15:46:00,
2013-04-28 10:51:00,54.9,44.3,29.61,SSW,197,5.0,11.0,67,0.00,,,0.00,WUHU216DAVISVP2,2013-04-28 15:51:00,
2013-04-28 10:56:00,55.2,44.6,29.62,SW,236,3.0,11.0,67,0.00,,,0.00,WUHU216DAVISVP2,2013-04-28 15:56:00,
2013-04-28 11:01:00,55.7,44.2,29.62,SSW,211,0.0,6.0,65,0.00,,,0.00,WUHU216DAVISVP2,2013-04-28 16:01:00,
2013-04-28 11:06:00,56.1,44.2,29.62,SSW,201,3.0,10.0,64,0.00,,,0.00,WUHU216DAVISVP2,2013-04-28 16:06:00,
2013-04-28 11:11:00,56.4,44.5,29.63,SSW,206,5.0,10.0,64,0.00,,,0.00,WUHU216DAVISVP2,2013-04-28 16:11:00,
2013-04-28 11:16:00,56.6,45.1,29.62,SSW,206,3.0,10.0,65,0.00,,,0.00,WUHU216DAVISVP2,2013-04-28 16:16:00,
2013-04-28 11:21:00,56.8,44.9,29.63,SSW,209,5.0,10.0,64,0.00,,,0.00,WUHU216DAVISVP2,2013-04-28 16:21:00,
2013-04-28 11:26:00,57.1,45.2,29.63,SSW,193,5.0,13.0,64,0.00,,,0.00,WUHU216DAVISVP2,2013-04-28 16:26:00,
2013-04-28 11:31:00,57.2,45.7,29.63,WSW,241,0.0,14.0,65,0.00,,,0.00,WUHU216DAVISVP2,2013-04-28 16:31:00,
2013-04-28 11:36:00,57.7,45.3,29.63,SSW,213,3.0,14.0,63,0.00,,,0.00,WUHU216DAVISVP2,2013-04-28 16:36:00,
2013-04-28 11:41:00,58.2,44.9,29.62,WSW,250,2.0,8.0,61,0.00,,,0.00,WUHU216DAVISVP2,2013-04-28 16:41:00,
2013-04-28 11:46:00,58.6,44.4,29.63,WSW,252,1.0,8.0,59,0.00,,,0.00,WUHU216DAVISVP2,2013-04-28 16:46:00,
2013-04-28 11:51:00,58.8,44.6,29.63,SW,227,9.0,9.0,59,0.00,,,0.00,WUHU216DAVISVP2,2013-04-28 16:51:00,
2013-04-28 11:56:00,58.9,44.7,29.64,WSW,253,0.0,9.0,59,0.00,,,0.00,WUHU216DAVISVP2,2013-04-28 16:56:00,
2013-04-28 12:01:00,58.8,44.6,29.63,SW,230,0.0,9.0,59,0.00,,,0.00,WUHU216DAVISVP2,2013-04-28 17:01:00,
2013-04-28 12:06:00,58.8,45.1,29.64,WSW,237,6.0,7.0,60,0.00,,,0.00,WUHU216DAVISVP2,2013-04-28 17:06:00,
2013-04-28 12:11:00,58.6,44.9,29.63,WNW,295,0.0,9.0,60,0.00,,,0.00,WUHU216DAVISVP2,2013-04-28 17:11:00,
2013-04-28 12:16:00,58.7,44.5,29.64,West,260,0.0,9.0,59,0.00,,,0.00,WUHU216DAVISVP2,2013-04-28 17:16:00,
2013-04-28 12:21:00,58.8,43.7,29.64,WNW,298,2.0,9.0,57,0.00,,,0.00,WUHU216DAVISVP2,2013-04-28 17:21:00,
2013-04-28 12:26:00,59.0,44.3,29.65,West,280,5.0,11.0,58,0.00,,,0.00,WUHU216DAVISVP2,2013-04-28 17:26:00,
2013-04-28 12:31:00,59.0,44.3,29.64,West,277,0.0,11.0,58,0.00,,,0.00,WUHU216DAVISVP2,2013-04-28 17:31:00,
2013-04-28 12:36:00,58.6,44.4,29.64,NW,320,2.0,11.0,59,0.00,,,0.00,WUHU216DAVISVP2,2013-04-28 17:36:00,
2013-04-28 12:41:00,58.6,44.4,29.65,WNW,298,5.0,11.0,59,0.00,,,0.00,WUHU216DAVISVP2,2013-04-28 17:41:00,
2013-04-28 12:46:00,59.0,44.3,29.65,WNW,290,7.0,14.0,58,0.00,,,0.00,WUHU216DAVISVP2,2013-04-28 17:46:00,
2013-04-28 12:51:00,59.0,44.8,29.65,WNW,294,2.0,14.0,59,0.00,,,0.00,WUHU216DAVISVP2,2013-04-28 17:51:00,
2013-04-28 12:56:00,59.0,45.3,29.65,NW,309,0.0,14.0,60,0.00,,,0.00,WUHU216DAVISVP2,2013-04-28 17:56:00,
2013-04-28 13:01:00,58.5,45.7,29.65,West,274,3.0,14.0,62,0.00,,,0.00,WUHU216DAVISVP2,2013-04-28 18:01:00,
2013-04-28 13:06:00,58.6,45.3,29.66,West,279,6.0,13.0,61,0.00,,,0.00,WUHU216DAVISVP2,2013-04-28 18:06:00,
2013-04-28 13:11:00,58.6,45.3,29.66,West,269,1.0,13.0,61,0.00,,,0.00,WUHU216DAVISVP2,2013-04-28 18:11:00,
2013-04-28 13:16:00,59.0,45.7,29.66,West,273,2.0,9.0,61,0.00,,,0.00,WUHU216DAVISVP2,2013-04-28 18:16:00,
2013-04-28 13:21:00,59.0,45.3,29.66,West,279,0.0,8.0,60,0.00,,,0.00,WUHU216DAVISVP2,2013-04-28 18:21:00,
2013-04-28 13:26:00,59.0,45.3,29.66,NW,304,0.0,8.0,60,0.00,,,0.00,WUHU216DAVISVP2,2013-04-28 18:26:00,
2013-04-28 13:31:00,58.5,44.8,29.67,WNW,300,1.0,11.0,60,0.00,,,0.00,WUHU216DAVISVP2,2013-04-28 18:31:00,
2013-04-28 13:36:00,58.0,44.3,29.67,NW,315,0.0,11.0,60,0.00,,,0.00,WUHU216DAVISVP2,2013-04-28 18:36:00,
2013-04-28 13:41:00,57.7,44.0,29.67,West,273,7.0,12.0,60,0.00,,,0.00,WUHU216DAVISVP2,2013-04-28 18:41:00,
2013-04-28 13:46:00,57.5,44.3,29.67,West,276,0.0,12.0,61,0.00,,,0.00,WUHU216DAVISVP2,2013-04-28 18:46:00,
2013-04-28 13:51:00,57.6,44.4,29.68,West,279,0.0,10.0,61,0.00,,,0.00,WUHU216DAVISVP2,2013-04-28 18:51:00,
2013-04-28 13:56:00,57.7,44.9,29.68,West,270,0.0,12.0,62,0.00,,,0.00,WUHU216DAVISVP2,2013-04-28 18:56:00,
2013-04-28 14:01:00,58.0,44.8,29.68,NNW,331,4.0,12.0,61,0.00,,,0.00,WUHU216DAVISVP2,2013-04-28 19:01:00,
2013-04-28 14:06:00,58.3,45.0,29.68,West,272,8.0,14.0,61,0.00,,,0.00,WUHU216DAVISVP2,2013-04-28 19:06:00,
2013-04-28 14:11:00,58.6,44.9,29.69,West,281,4.0,14.0,60,0.00,,,0.00,WUHU216DAVISVP2,2013-04-28 19:11:00,
2013-04-28 14:16:00,59.0,45.7,29.69,WNW,285,1.0,10.0,61,0.00,,,0.00,WUHU216DAVISVP2,2013-04-28 19:16:00,
2013-04-28 14:21:00,59.3,45.5,29.69,West,270,2.0,12.0,60,0.00,,,0.00,WUHU216DAVISVP2,2013-04-28 19:21:00,
2013-04-28 14:26:00,59.7,45.5,29.70,WNW,296,0.0,12.0,59,0.00,,,0.00,WUHU216DAVISVP2,2013-04-28 19:26:00,
2013-04-28 14:31:00,60.1,45.8,29.70,West,277,0.0,9.0,59,0.00,,,0.00,WUHU216DAVISVP2,2013-04-28 19:31:00,
2013-04-28 14:36:00,60.6,45.9,29.70,West,273,0.0,7.0,58,0.00,,,0.00,WUHU216DAVISVP2,2013-04-28 19:36:00,
2013-04-28 14:41:00,60.9,46.1,29.70,West,271,0.0,10.0,58,0.00,,,0.00,WUHU216DAVISVP2,2013-04-28 19:41:00,
2013-04-28 14:46:00,61.0,45.3,29.70,NW,309,0.0,10.0,56,0.00,,,0.00,WUHU216DAVISVP2,2013-04-28 19:46:00,
2013-04-28 14:51:00,60.8,45.1,29.70,West,271,0.0,7.0,56,0.00,,,0.00,WUHU216DAVISVP2,2013-04-28 19:51:00,
2013-04-28 14:56:00,60.7,45.0,29.71,West,281,0.0,12.0,56,0.00,,,0.00,WUHU216DAVISVP2,2013-04-28 19:56:00,
2013-04-28 15:01:00,60.6,44.9,29.71,NW,326,0.0,12.0,56,0.00,,,0.00,WUHU216DAVISVP2,2013-04-28 20:01:00,
2013-04-28 15:06:00,60.4,44.7,29.71,NW,308,0.0,12.0,56,0.00,,,0.00,WUHU216DAVISVP2,2013-04-28 20:06:00,
2013-04-28 15:11:00,60.7,44.5,29.71,WNW,299,0.0,15.0,55,0.00,,,0.00,WUHU216DAVISVP2,2013-04-28 20:11:00,
2013-04-28 15:16:00,60.8,45.1,29.71,NNW,347,0.0,15.0,56,0.00,,,0.00,WUHU216DAVISVP2,2013-04-28 20:16:00,
2013-04-28 15:21:00,60.8,45.6,29.71,WNW,295,0.0,9.0,57,0.00,,,0.00,WUHU216DAVISVP2,2013-04-28 20:21:00,
2013-04-28 15:26:00,60.6,44.9,29.71,North,355,3.0,13.0,56,0.00,,,0.00,WUHU216DAVISVP2,2013-04-28 20:26:00,
2013-04-28 15:31:00,60.6,45.4,29.72,NW,314,0.0,13.0,57,0.00,,,0.00,WUHU216DAVISVP2,2013-04-28 20:31:00,
2013-04-28 15:36:00,60.8,45.6,29.72,NNW,348,0.0,11.0,57,0.00,,,0.00,WUHU216DAVISVP2,2013-04-28 20:36:00,
2013-04-28 15:41:00,60.7,45.5,29.72,North,5,3.0,10.0,57,0.00,,,0.00,WUHU216DAVISVP2,2013-04-28 20:41:00,
2013-04-28 15:46:00,60.1,44.4,29.72,NNW,340,0.0,10.0,56,0.00,,,0.00,WUHU216DAVISVP2,2013-04-28 20:46:00,
2013-04-28 15:51:00,60.0,44.8,29.72,North,355,0.0,6.0,57,0.00,,,0.00,WUHU216DAVISVP2,2013-04-28 20:51:00,
2013-04-28 15:56:00,60.2,44.5,29.72,NNW,347,0.0,11.0,56,0.00,,,0.00,WUHU216DAVISVP2,2013-04-28 20:56:00,
2013-04-28 16:01:00,60.4,44.7,29.72,NW,306,0.0,11.0,56,0.00,,,0.00,WUHU216DAVISVP2,2013-04-28 21:01:00,
2013-04-28 16:06:00,60.5,43.8,29.72,NE,37,0.0,10.0,54,0.00,,,0.00,WUHU216DAVISVP2,2013-04-28 21:06:00,
2013-04-28 16:11:00,60.7,44.5,29.72,North,5,1.0,10.0,55,0.00,,,0.00,WUHU216DAVISVP2,2013-04-28 21:11:00,
2013-04-28 16:16:00,60.9,44.2,29.72,NNE,24,4.0,6.0,54,0.00,,,0.00,WUHU216DAVISVP2,2013-04-28 21:16:00,
2013-04-28 16:21:00,61.2,45.0,29.73,NW,317,1.0,7.0,55,0.00,,,0.00,WUHU216DAVISVP2,2013-04-28 21:21:00,
2013-04-28 16:26:00,61.2,44.5,29.73,North,11,0.0,10.0,54,0.00,,,0.00,WUHU216DAVISVP2,2013-04-28 21:26:00,
2013-04-28 16:31:00,61.5,44.3,29.73,North,5,3.0,10.0,53,0.00,,,0.00,WUHU216DAVISVP2,2013-04-28 21:31:00,
2013-04-28 16:36:00,61.0,43.3,29.73,North,355,1.0,13.0,52,0.00,,,0.00,WUHU216DAVISVP2,2013-04-28 21:36:00,
2013-04-28 16:41:00,61.0,44.8,29.73,NNE,15,6.0,13.0,55,0.00,,,0.00,WUHU216DAVISVP2,2013-04-28 21:41:00,
2013-04-28 16:46:00,61.1,44.9,29.73,North,9,0.0,11.0,55,0.00,,,0.00,WUHU216DAVISVP2,2013-04-28 21:46:00,
2013-04-28 16:52:00,60.7,44.0,29.73,North,349,0.0,11.0,54,0.00,,,0.00,WUHU216DAVISVP2,2013-04-28 21:52:00,
2013-04-28 16:56:00,60.5,43.8,29.73,NNW,338,0.0,10.0,54,0.00,,,0.00,WUHU216DAVISVP2,2013-04-28 21:56:00,
2013-04-28 17:02:00,60.4,43.2,29.73,NW,315,0.0,7.0,53,0.00,,,0.00,WUHU216DAVISVP2,2013-04-28 22:02:00,
2013-04-28 17:07:00,60.2,43.1,29.74,North,350,1.0,16.0,53,0.00,,,0.00,WUHU216DAVISVP2,2013-04-28 22:07:00,
2013-04-28 17:12:00,59.7,43.1,29.74,NW,310,6.0,16.0,54,0.00,,,0.00,WUHU216DAVISVP2,2013-04-28 22:12:00,
2013-04-28 17:17:00,59.3,42.7,29.75,NW,311,4.0,9.0,54,0.00,,,0.00,WUHU216DAVISVP2,2013-04-28 22:17:00,
2013-04-28 17:22:00,59.0,42.9,29.75,NNW,338,3.0,9.0,55,0.00,,,0.00,WUHU216DAVISVP2,2013-04-28 22:22:00,
2013-04-28 17:27:00,59.0,42.9,29.75,North,355,0.0,12.0,55,0.00,,,0.00,WUHU216DAVISVP2,2013-04-28 22:27:00,
2013-04-28 17:32:00,59.2,41.1,29.76,North,360,0.0,12.0,51,0.00,,,0.00,WUHU216DAVISVP2,2013-04-28 22:32:00,
2013-04-28 17:37:00,59.5,39.2,29.76,North,5,0.0,12.0,47,0.00,,,0.00,WUHU216DAVISVP2,2013-04-28 22:37:00,
2013-04-28 17:42:00,59.3,39.0,29.76,NNE,17,1.0,10.0,47,0.00,,,0.00,WUHU216DAVISVP2,2013-04-28 22:42:00,
2013-04-28 17:47:00,59.2,40.6,29.76,North,360,1.0,10.0,50,0.00,,,0.00,WUHU216DAVISVP2,2013-04-28 22:47:00,
2013-04-28 17:52:00,59.0,40.9,29.76,NW,320,0.0,6.0,51,0.00,,,0.00,WUHU216DAVISVP2,2013-04-28 22:52:00,
2013-04-28 17:57:00,59.0,39.3,29.76,NNW,348,3.0,7.0,48,0.00,,,0.00,WUHU216DAVISVP2,2013-04-28 22:57:00,
2013-04-28 18:02:00,59.0,39.3,29.77,NW,325,1.0,10.0,48,0.00,,,0.00,WUHU216DAVISVP2,2013-04-28 23:02:00,
2013-04-28 18:07:00,59.0,39.8,29.77,NNE,26,3.0,13.0,49,0.00,,,0.00,WUHU216DAVISVP2,2013-04-28 23:07:00,
2013-04-28 18:12:00,58.8,40.2,29.77,NNW,341,0.0,13.0,50,0.00,,,0.00,WUHU216DAVISVP2,2013-04-28 23:12:00,
2013-04-28 18:17:00,58.4,38.8,29.77,West,263,2.0,10.0,48,0.00,,,0.00,WUHU216DAVISVP2,2013-04-28 23:17:00,
2013-04-28 18:22:00,58.3,39.2,29.77,NNE,12,1.0,10.0,49,0.00,,,0.00,WUHU216DAVISVP2,2013-04-28 23:22:00,
2013-04-28 18:27:00,58.6,40.0,29.77,NW,322,0.0,10.0,50,0.00,,,0.00,WUHU216DAVISVP2,2013-04-28 23:27:00,
2013-04-28 18:32:00,58.5,39.4,29.78,NNE,22,2.0,9.0,49,0.00,,,0.00,WUHU216DAVISVP2,2013-04-28 23:32:00,
2013-04-28 18:37:00,58.3,38.1,29.78,North,355,1.0,11.0,47,0.00,,,0.00,WUHU216DAVISVP2,2013-04-28 23:37:00,
2013-04-28 18:42:00,58.3,38.1,29.78,NNE,13,4.0,12.0,47,0.00,,,0.00,WUHU216DAVISVP2,2013-04-28 23:42:00,
2013-04-28 18:47:00,57.8,33.5,29.78,NNE,19,2.0,12.0,40,0.00,,,0.00,WUHU216DAVISVP2,2013-04-28 23:47:00,
2013-04-28 18:52:00,57.3,33.6,29.79,NNW,333,0.0,12.0,41,0.00,,,0.00,WUHU216DAVISVP2,2013-04-28 23:52:00,
2013-04-28 18:57:00,57.1,33.5,29.79,North,5,1.0,12.0,41,0.00,,,0.00,WUHU216DAVISVP2,2013-04-28 23:57:00,
2013-04-28 19:02:00,56.9,33.9,29.79,NW,317,1.0,11.0,42,0.00,,,0.00,WUHU216DAVISVP2,2013-04-29 00:02:00,
2013-04-28 19:07:00,56.7,33.7,29.79,North,11,1.0,11.0,42,0.00,,,0.00,WUHU216DAVISVP2,2013-04-29 00:07:00,
2013-04-28 19:12:00,56.5,33.5,29.79,NNW,344,2.0,9.0,42,0.00,,,0.00,WUHU216DAVISVP2,2013-04-29 00:12:00,
2013-04-28 19:17:00,56.4,33.4,29.80,North,360,3.0,10.0,42,0.00,,,0.00,WUHU216DAVISVP2,2013-04-29 00:17:00,
2013-04-28 19:22:00,56.3,34.6,29.80,North,349,0.0,10.0,44,0.00,,,0.00,WUHU216DAVISVP2,2013-04-29 00:22:00,
2013-04-28 19:27:00,56.2,35.0,29.80,North,355,5.0,9.0,45,0.00,,,0.00,WUHU216DAVISVP2,2013-04-29 00:27:00,
2013-04-28 19:32:00,55.9,31.1,29.80,West,272,0.0,9.0,39,0.00,,,0.00,WUHU216DAVISVP2,2013-04-29 00:32:00,
2013-04-28 19:37:00,55.3,30.6,29.81,NNW,336,0.0,11.0,39,0.00,,,0.00,WUHU216DAVISVP2,2013-04-29 00:37:00,
2013-04-28 19:42:00,54.8,30.8,29.81,West,277,1.0,11.0,40,0.00,,,0.00,WUHU216DAVISVP2,2013-04-29 00:42:00,
2013-04-28 19:47:00,54.5,30.5,29.81,North,355,3.0,7.0,40,0.00,,,0.00,WUHU216DAVISVP2,2013-04-29 00:47:00,
2013-04-28 19:52:00,54.1,30.7,29.81,NNE,21,0.0,10.0,41,0.00,,,0.00,WUHU216DAVISVP2,2013-04-29 00:52:00,
2013-04-28 19:57:00,53.7,31.6,29.81,NW,322,1.0,10.0,43,0.00,,,0.00,WUHU216DAVISVP2,2013-04-29 00:57:00,
2013-04-28 20:02:00,53.3,31.2,29.81,NW,317,1.0,4.0,43,0.00,,,0.00,WUHU216DAVISVP2,2013-04-29 01:02:00,
2013-04-28 20:07:00,52.9,32.0,29.81,WNW,292,0.0,7.0,45,0.00,,,0.00,WUHU216DAVISVP2,2013-04-29 01:07:00,
2013-04-28 20:12:00,52.5,32.2,29.81,North,355,0.0,7.0,46,0.00,,,0.00,WUHU216DAVISVP2,2013-04-29 01:12:00,
2013-04-28 20:17:00,52.2,31.4,29.81,NNW,336,0.0,3.0,45,0.00,,,0.00,WUHU216DAVISVP2,2013-04-29 01:17:00,
2013-04-28 20:22:00,51.9,31.1,29.81,WNW,283,0.0,7.0,45,0.00,,,0.00,WUHU216DAVISVP2,2013-04-29 01:22:00,
2013-04-28 20:27:00,51.5,31.3,29.81,North,9,0.0,7.0,46,0.00,,,0.00,WUHU216DAVISVP2,2013-04-29 01:27:00,
2013-04-28 20:32:00,51.1,31.5,29.82,NW,313,0.0,2.0,47,0.00,,,0.00,WUHU216DAVISVP2,2013-04-29 01:32:00,
2013-04-28 20:37:00,50.6,31.6,29.82,WNW,284,0.0,2.0,48,0.00,,,0.00,WUHU216DAVISVP2,2013-04-29 01:37:00,
2013-04-28 20:42:00,50.1,31.6,29.82,WNW,290,0.0,9.0,49,0.00,,,0.00,WUHU216DAVISVP2,2013-04-29 01:42:00,
2013-04-28 20:47:00,49.7,31.8,29.82,WNW,298,0.0,9.0,50,0.00,,,0.00,WUHU216DAVISVP2,2013-04-29 01:47:00,
2013-04-28 20:52:00,49.2,32.3,29.82,West,273,0.0,7.0,52,0.00,,,0.00,WUHU216DAVISVP2,2013-04-29 01:52:00,
2013-04-28 20:57:00,48.5,32.6,29.82,NNW,333,0.0,7.0,54,0.00,,,0.00,WUHU216DAVISVP2,2013-04-29 01:57:00,
2013-04-28 21:02:00,48.1,32.7,29.82,WNW,290,0.0,3.0,55,0.00,,,0.00,WUHU216DAVISVP2,2013-04-29 02:02:00,
2013-04-28 21:07:00,47.8,32.4,29.82,WNW,294,0.0,3.0,55,0.00,,,0.00,WUHU216DAVISVP2,2013-04-29 02:07:00,
2013-04-28 21:12:00,47.6,32.3,29.82,WNW,303,0.0,2.0,55,0.00,,,0.00,WUHU216DAVISVP2,2013-04-29 02:12:00,
2013-04-28 21:17:00,47.6,30.8,29.83,NW,306,0.0,3.0,52,0.00,,,0.00,WUHU216DAVISVP2,2013-04-29 02:17:00,
2013-04-28 21:22:00,47.9,30.1,29.83,WNW,284,1.0,5.0,50,0.00,,,0.00,WUHU216DAVISVP2,2013-04-29 02:22:00,
2013-04-28 21:27:00,47.8,29.5,29.83,WNW,295,0.0,5.0,49,0.00,,,0.00,WUHU216DAVISVP2,2013-04-29 02:27:00,
2013-04-28 21:32:00,47.5,29.2,29.83,NNW,335,2.0,6.0,49,0.00,,,0.00,WUHU216DAVISVP2,2013-04-29 02:32:00,
2013-04-28 21:37:00,47.2,29.0,29.83,NW,306,0.0,6.0,49,0.00,,,0.00,WUHU216DAVISVP2,2013-04-29 02:37:00,
2013-04-28 21:42:00,47.0,28.8,29.84,WNW,303,0.0,4.0,49,0.00,,,0.00,WUHU216DAVISVP2,2013-04-29 02:42:00,
2013-04-28 21:47:00,46.8,28.6,29.84,WNW,299,0.0,2.0,49,0.00,,,0.00,WUHU216DAVISVP2,2013-04-29 02:47:00,
2013-04-28 21:52:00,46.5,28.3,29.84,WNW,302,0.0,2.0,49,0.00,,,0.00,WUHU216DAVISVP2,2013-04-29 02:52:00,
2013-04-28 21:57:00,46.3,28.6,29.84,WNW,294,0.0,3.0,50,0.00,,,0.00,WUHU216DAVISVP2,2013-04-29 02:57:00,
2013-04-28 22:02:00,45.9,29.7,29.84,NW,307,0.0,3.0,53,0.00,,,0.00,WUHU216DAVISVP2,2013-04-29 03:02:00,
2013-04-28 22:07:00,45.5,29.4,29.84,WNW,296,0.0,2.0,53,0.00,,,0.00,WUHU216DAVISVP2,2013-04-29 03:07:00,
2013-04-28 22:12:00,45.3,29.6,29.84,WNW,296,0.0,1.0,54,0.00,,,0.00,WUHU216DAVISVP2,2013-04-29 03:12:00,
2013-04-28 22:17:00,45.1,29.5,29.84,WNW,295,0.0,0.0,54,0.00,,,0.00,WUHU216DAVISVP2,2013-04-29 03:17:00,
2013-04-28 22:22:00,45.0,29.4,29.84,WNW,294,0.0,0.0,54,0.00,,,0.00,WUHU216DAVISVP2,2013-04-29 03:22:00,
2013-04-28 22:27:00,45.0,29.8,29.85,WNW,294,0.0,0.0,55,0.00,,,0.00,WUHU216DAVISVP2,2013-04-29 03:27:00,
2013-04-28 22:32:00,44.9,29.7,29.85,WNW,294,0.0,0.0,55,0.00,,,0.00,WUHU216DAVISVP2,2013-04-29 03:32:00,
2013-04-28 22:37:00,44.7,29.5,29.85,WNW,294,0.0,0.0,55,0.00,,,0.00,WUHU216DAVISVP2,2013-04-29 03:37:00,
2013-04-28 22:42:00,44.5,29.4,29.85,WNW,294,0.0,0.0,55,0.00,,,0.00,WUHU216DAVISVP2,2013-04-29 03:42:00,
2013-04-28 22:47:00,44.3,29.6,29.85,WNW,294,0.0,0.0,56,0.00,,,0.00,WUHU216DAVISVP2,2013-04-29 03:47:00,
2013-04-28 22:52:00,44.1,29.9,29.85,WNW,294,0.0,0.0,57,0.00,,,0.00,WUHU216DAVISVP2,2013-04-29 03:52:00,
2013-04-28 22:57:00,44.0,29.8,29.86,WNW,294,0.0,0.0,57,0.00,,,0.00,WUHU216DAVISVP2,2013-04-29 03:57:00,
2013-04-28 23:01:00,43.8,29.6,29.85,WNW,294,0.0,0.0,57,0.00,,,0.00,WUHU216DAVISVP2,2013-04-29 04:01:00,
2013-04-28 23:06:00,43.6,29.4,29.86,WNW,292,0.0,0.0,57,0.00,,,0.00,WUHU216DAVISVP2,2013-04-29 04:06:00,
2013-04-28 23:11:00,43.4,29.7,29.86,WNW,293,0.0,0.0,58,0.00,,,0.00,WUHU216DAVISVP2,2013-04-29 04:11:00,
2013-04-28 23:16:00,43.2,29.9,29.86,WNW,292,0.0,0.0,59,0.00,,,0.00,WUHU216DAVISVP2,2013-04-29 04:16:00,
2013-04-28 23:21:00,42.9,30.0,29.86,WNW,293,0.0,0.0,60,0.00,,,0.00,WUHU216DAVISVP2,2013-04-29 04:21:00,
2013-04-28 23:26:00,42.5,30.1,29.86,WNW,292,0.0,0.0,61,0.00,,,0.00,WUHU216DAVISVP2,2013-04-29 04:26:00,
2013-04-28 23:31:00,42.1,29.7,29.86,WNW,294,0.0,0.0,61,0.00,,,0.00,WUHU216DAVISVP2,2013-04-29 04:31:00,
2013-04-28 23:36:00,42.1,30.1,29.86,WNW,294,0.0,0.0,62,0.00,,,0.00,WUHU216DAVISVP2,2013-04-29 04:36:00,
2013-04-28 23:41:00,42.1,29.7,29.85,WNW,294,0.0,0.0,61,0.00,,,0.00,WUHU216DAVISVP2,2013-04-29 04:41:00,
2013-04-28 23:46:00,42.2,29.8,29.86,WNW,294,0.0,0.0,61,0.00,,,0.00,WUHU216DAVISVP2,2013-04-29 04:46:00,
2013-04-28 23:51:00,42.3,29.9,29.85,WNW,295,0.0,0.0,61,0.00,,,0.00,WUHU216DAVISVP2,2013-04-29 04:51:00,
2013-04-28 23:56:00,42.3,29.9,29.86,WNW,295,0.0,0.0,61,0.00,,,0.00,WUHU216DAVISVP2,2013-04-29 04:56:00,